Terminal Aerodrome Forecast
Issued by NWS Milwaukee/Sullivan, WI

Home | Current Version | Previous Version | Text Only | Print | Product List | Glossary On
Versions: 1 2 3 4 5 6 7 8 9 10 11 12 13 14 15 16 17 18 19 20 21 22 23 24 25 26 27 28 29 30 31 32 33 34 35 36 37 38 39 40 41
000
FTUS43 KMKX 180520
TAFMKE
TAF
KMKE 180520Z 1806/1912 22009KT P6SM SKC WS020/24035KT
     FM181400 21013G23KT P6SM SKC
     FM182200 21015KT P6SM FEW250
     FM190000 21012KT P6SM FEW250 WS020/22040KT
     FM190500 23011G21KT P6SM FEW250 WS020/25040KT
     FM190900 27007KT P6SM FEW200=

USA.gov is the U.S. government's official web portal to all federal, state and local government web resources and services.